This is the latest recevied weather packets stored in our database for station/object IT9KWW-13. If no packets are shown the sender has not sent any weather packets the latest 1 day(s).
| Time | Temp. | Humidity | Pressure | Rain* | Wind** | Luminosity | Snow |
|---|---|---|---|---|---|---|---|
| 1778002761 | 17.78° C | 85% | 1012.9 hPa | 0 mm | 2.68 m/s, 202° | - | - |
| 1778002641 | 17.78° C | 85% | 1012.9 hPa | 0 mm | 2.24 m/s, 202° | - | - |
| 1778002510 | 17.78° C | 85% | 1012.9 hPa | 0 mm | 3.58 m/s, 202° | - | - |
| 1778002389 | 17.78° C | 85% | 1012.9 hPa | 0 mm | 2.68 m/s, 180° | - | - |
| 1778002269 | 17.78° C | 85% | 1012.9 hPa | 0 mm | 2.68 m/s, 202° | - | - |
| 1778002137 | 17.78° C | 84% | 1012.9 hPa | 0 mm | 3.58 m/s, 180° | - | - |
| 1778002017 | 18.33° C | 84% | 1012.9 hPa | 0 mm | 2.68 m/s, 202° | - | - |
| 1778001897 | 18.33° C | 84% | 1012.9 hPa | 0 mm | 3.13 m/s, 202° | - | - |
| 1778001765 | 18.33° C | 84% | 1012.9 hPa | 0 mm | 3.58 m/s, 225° | - | - |
| 1778001645 | 18.33° C | 84% | 1012.9 hPa | 0 mm | 2.68 m/s, 202° | - | - |
| 1778001525 | 18.33° C | 84% | 1012.9 hPa | 0 mm | 4.02 m/s, 202° | - | - |
| 1778001393 | 18.33° C | 83% | 1012.9 hPa | 0 mm | 3.58 m/s, 202° | - | - |
| 1778001273 | 18.33° C | 83% | 1012.9 hPa | 0 mm | 4.02 m/s, 202° | - | - |
| 1778001153 | 18.33° C | 83% | 1012.9 hPa | 0 mm | 4.02 m/s, 180° | - | - |
| 1778001021 | 18.33° C | 82% | 1012.9 hPa | 0 mm | 4.02 m/s, 202° | - | - |
| 1778000901 | 18.33° C | 82% | 1012.9 hPa | 0 mm | 4.02 m/s, 158° | - | - |
| 1778000781 | 18.33° C | 82% | 1012.9 hPa | 0 mm | 3.13 m/s, 180° | - | - |
| 1778000650 | 18.33° C | 82% | 1012.9 hPa | 0 mm | 4.02 m/s, 180° | - | - |
| 1778000529 | 18.33° C | 82% | 1012.9 hPa | 0 mm | 3.58 m/s, 202° | - | - |
| 1778000409 | 18.33° C | 82% | 1012.9 hPa | 0 mm | 3.13 m/s, 202° | - | - |
| 1778000277 | 18.33° C | 81% | 1012.9 hPa | 0 mm | 3.13 m/s, 202° | - | - |
| 1778000157 | 18.89° C | 81% | 1012.9 hPa | 0 mm | 3.58 m/s, 202° | - | - |
| 1778000037 | 18.89° C | 81% | 1012.9 hPa | 0 mm | 3.13 m/s, 225° | - | - |
| 1777999905 | 18.89° C | 81% | 1012.9 hPa | 0 mm | 2.68 m/s, 202° | - | - |
| 1777999853 | 18.89° C | 81% | 1012.9 hPa | 0 mm | 3.13 m/s, 180° | - | - |
* Rain latest hour (hover to see other rain measurements)
** Current wind speed in m/s (hover to see current wind gust speed)